Senin
| Ora | Descriere | Temp | Se simte | Precipitatii | Umiditate | Vant |
|---|---|---|---|---|---|---|
| 00:00 | Senin | 14.2° | 14.4° | 0% | 63% | WNW 5.8 KM/H |
| 01:00 | Senin | 13.6° | 13.5° | 0% | 66% | W 6.8 KM/H |
| 02:00 | Senin | 12.8° | 12.5° | 0% | 70% | W 6.8 KM/H |
| 03:00 | Senin | 12.2° | 12° | 0% | 72% | W 6.1 KM/H |
| 04:00 | Senin | 11.9° | 12.1° | 0% | 74% | WNW 4.7 KM/H |
| 05:00 | Senin | 9° | 11.8° | 0% | 81% | NNW 4.7 KM/H |
| 06:00 | Senin | 11.5° | 11.2° | 0% | 78% | NNW 5.8 KM/H |
| 07:00 | Senin | 12.1° | 12.1° | 0% | 79% | N 5 KM/H |
| 08:00 | Senin | 13.8° | 13.8° | 0% | 71% | NE 2.5 KM/H |
| 09:00 | Senin | 15.7° | 15.7° | 0% | 65% | E 5.4 KM/H |
| 10:00 | Senin | 17.6° | 17.6° | 0% | 59% | SE 6.1 KM/H |
| 11:00 | Senin | 19.3° | 19.3° | 0% | 54% | SSE 6.8 KM/H |
| 12:00 | Senin | 20.8° | 20.8° | 0% | 50% | S 7.6 KM/H |
| 13:00 | Senin | 22.1° | 24.3° | 0% | 46% | SSW 8.6 KM/H |
| 14:00 | Senin | 23.1° | 24.4° | 0% | 41% | SSW 9.7 KM/H |
| 15:00 | Senin | 23.7° | 24.5° | 0% | 38% | SSW 9.7 KM/H |
| 16:00 | Senin | 23.9° | 24.5° | 0% | 36% | SSW 9.4 KM/H |
| 17:00 | Senin | 23.9° | 24.4° | 0% | 35% | SSW 9 KM/H |
| 18:00 | Senin | 23.6° | 24.4° | 0% | 36% | SSW 9.4 KM/H |
| 19:00 | Senin | 22.5° | 24.5° | 0% | 48% | S 7.2 KM/H |
| 20:00 | Senin | 20.1° | 20.1° | 0% | 53% | S 8.3 KM/H |
| 21:00 | Senin | 18° | 18° | 0% | 56% | S 9 KM/H |
| 22:00 | Senin | 16.9° | 16.9° | 0% | 60% | S 9.7 KM/H |
| 23:00 | Senin | 16.1° | 16.1° | 0% | 64% | S 10.1 KM/H |